Weather in Tucacas

Venezuela     10°46′04″N   68°19′40″W
temp.,
°C
wind,
m/s
gust,
m/s
humid.,
%
clouds,
%
prec.,
mm/h
press.,
hPa
HPBL,
m
7 may, fri
fri723:00+25ene6885100 1.6 1014646
02:00+25ene6885100 3.8 1012616
05:00+25ene6884100 1.3 1012646
08:00+26ene688333 2.8 1014782
11:00+26ene588183 2.9 1015804
14:00+27ene677590 3.3 1012920
17:00+26ene5781100 1.1 1011710
20:00+26ene588656 2.5 1013617
8 may, sat
sat823:00+26ene6987100 1.9 1014651
02:00+25ene698691 4.6 1012716
05:00+25ene688590 1.7 1012670
08:00+26ene678567 4.7 1014662
11:00+27e5683100 2.5 1014685
14:00+27ene5677100 2.6 1012830
17:00+26ene5682100 0.4 1011676
20:00+25e478999 5.4 1013446
9 may, sun
sun923:00+26e588896 5.5 1014517
02:00+25ene5887100 9.9 1012473
05:00+25ene4688100 7.1 1012375
08:00+26ene5787100 13.4 1014463
11:00+27e3383100 3.1 1014468
14:00+27ene217896 4.3 1012355
17:00+26ene3384100 3.8 1011172
20:00+25ese4592100 10.7 1013212
10 may, mon
mon1023:00+24ese4594100 9.9 1015365
02:00+24e5589100 11.3 1013425
05:00+24e3584100 0.5 1013337
08:00+26e468296 0.7 1014593
11:00+27e557811 0.4 1014743
14:00+27ene667728 0.8 1011780
17:00+27e57797 1.0 1011667
20:00+26e598710 3.3 1013473
11 may, tue
tue1123:00+26e7118718 4.3 1014549
02:00+26e81086100 7.9 1012589
05:00+25e358797 1.7 1012331
08:00+26e3485100 1.8 1014449
11:00+27sse1381100 1.9 1014277
14:00+27ene4480100 3.4 1012288
17:00+26ene5584100 0.8 1011478
20:00+26e468781 2.3 1012333